| time (UTC) | temp C | wind direction | speed KPH | gust KPH | rain 1hr cm | rain 24hr cm | rain mn cm | humidity % | barometer mb |
| 20260503215230 | 16 | 202 | 3.2 | 4.8 | 0.00 | 0.00 | 0.00 | 26 | 990.1 |
| 20260503214728 | 16 | 212 | 3.2 | 4.8 | 0.00 | 0.00 | 0.00 | 26 | 989.9 |
| 20260503214224 | 16 | 88 | 1.6 | 4.8 | 0.00 | 0.00 | 0.00 | 26 | 990.0 |
| 20260503213722 | 16 | 98 | 0.0 | 1.6 | 0.00 | 0.00 | 0.00 | 27 | 990.2 |
| 20260503213219 | 16 | 170 | 4.8 | 9.7 | 0.00 | 0.00 | 0.00 | 26 | 990.1 |
| 20260503212716 | 16 | 132 | 1.6 | 6.4 | 0.00 | 0.00 | 0.00 | 27 | 990.0 |
| 20260503212214 | 16 | 203 | 3.2 | 4.8 | 0.00 | 0.00 | 0.00 | 26 | 990.2 |
| 20260503211712 | 16 | 102 | 1.6 | 3.2 | 0.00 | 0.00 | 0.00 | 26 | 990.1 |
| 20260503211207 | 16 | 103 | 6.4 | 6.4 | 0.00 | 0.00 | 0.00 | 27 | 990.1 |
| 20260503210703 | 16 | 97 | 0.0 | 3.2 | 0.00 | 0.00 | 0.00 | 25 | 989.9 |
| 20260503210201 | 16 | 133 | 0.0 | 3.2 | 0.00 | 0.00 | 0.00 | 28 | 990.1 |
| 20260503205655 | 16 | 97 | 1.6 | 3.2 | 0.00 | 0.00 | 0.00 | 27 | 990.2 |
| 20260503205152 | 17 | 86 | 6.4 | 6.4 | 0.00 | 0.00 | 0.00 | 27 | 990.3 |
| 20260503204649 | 17 | 241 | 0.0 | 1.6 | 0.00 | 0.00 | 0.00 | 29 | 990.4 |
| 20260503204147 | 16 | 93 | 3.2 | 4.8 | 0.00 | 0.00 | 0.00 | 26 | 990.1 |
| 20260503203643 | 16 | 77 | 0.0 | 3.2 | 0.00 | 0.00 | 0.00 | 29 | 990.4 |
| 20260503203141 | 16 | 50 | 3.2 | 4.8 | 0.00 | 0.00 | 0.00 | 28 | 990.4 |
| 20260503202638 | 16 | 97 | 0.0 | 1.6 | 0.00 | 0.00 | 0.00 | 29 | 990.4 |
| 20260503202136 | 16 | 92 | 0.0 | 3.2 | 0.00 | 0.00 | 0.00 | 27 | 990.5 |
| 20260503201634 | 16 | 156 | 3.2 | 4.8 | 0.00 | 0.00 | 0.00 | 27 | 990.3 |
| 20260503201131 | 16 | 146 | 3.2 | 11.3 | 0.00 | 0.00 | 0.00 | 28 | 990.7 |
| 20260503200627 | 16 | 224 | 0.0 | 1.6 | 0.00 | 0.00 | 0.00 | 27 | 990.6 |
| 20260503200124 | 16 | 91 | 1.6 | 3.2 | 0.00 | 0.00 | 0.00 | 25 | 990.7 |
| 20260503195621 | 16 | 122 | 4.8 | 6.4 | 0.00 | 0.00 | 0.00 | 26 | 990.9 |
| 20260503195118 | 16 | 110 | 1.6 | 3.2 | 0.00 | 0.00 | 0.00 | 26 | 991.0 |
| 20260503194615 | 16 | 178 | 6.4 | 9.7 | 0.00 | 0.00 | 0.00 | 25 | 990.9 |
| 20260503194115 | 16 | 195 | 3.2 | 3.2 | 0.00 | 0.00 | 0.00 | 26 | 991.0 |
| 20260503193613 | 16 | 194 | 1.6 | 12.9 | 0.00 | 0.00 | 0.00 | 26 | 990.9 |
| 20260503193108 | 16 | 102 | 3.2 | 4.8 | 0.00 | 0.00 | 0.00 | 28 | 991.1 |
| 20260503192604 | 16 | 115 | 3.2 | 4.8 | 0.00 | 0.00 | 0.00 | 25 | 991.2 |
| 20260503192100 | 16 | 143 | 1.6 | 4.8 | 0.00 | 0.00 | 0.00 | 27 | 991.4 |
| 20260503191557 | 16 | 118 | 4.8 | 6.4 | 0.00 | 0.00 | 0.00 | 26 | 991.5 |
| 20260503191054 | 16 | 99 | 1.6 | 3.2 | 0.00 | 0.00 | 0.00 | 28 | 991.5 |
| 20260503190551 | 16 | 106 | 4.8 | 4.8 | 0.00 | 0.00 | 0.00 | 28 | 991.4 |
| 20260503190048 | 15 | 233 | 8.0 | 9.7 | 0.00 | 0.00 | 0.00 | 29 | 991.4 |
| 20260503185544 | 16 | 181 | 8.0 | 11.3 | 0.00 | 0.00 | 0.00 | 27 | 991.8 |
| 20260503185044 | 15 | 210 | 4.8 | 6.4 | 0.00 | 0.00 | 0.00 | 28 | 991.8 |
| 20260503184540 | 15 | 193 | 4.8 | 11.3 | 0.00 | 0.00 | 0.00 | 27 | 991.8 |
| 20260503184037 | 16 | 79 | 3.2 | 9.7 | 0.00 | 0.00 | 0.00 | 29 | 991.8 |
| 20260503183533 | 15 | 149 | 3.2 | 6.4 | 0.00 | 0.00 | 0.00 | 32 | 991.9 |
| 20260503183031 | 15 | 120 | 3.2 | 3.2 | 0.00 | 0.00 | 0.00 | 30 | 992.2 |
| 20260503182529 | 15 | 177 | 4.8 | 4.8 | 0.00 | 0.00 | 0.00 | 29 | 992.0 |
| 20260503182027 | 15 | 176 | 0.0 | 3.2 | 0.00 | 0.00 | 0.00 | 30 | 992.1 |
| 20260503181523 | 15 | 103 | 0.0 | 1.6 | 0.00 | 0.00 | 0.00 | 30 | 992.1 |
| 20260503181019 | 15 | 109 | 3.2 | 4.8 | 0.00 | 0.00 | 0.00 | 28 | 992.0 |
| 20260503180517 | 15 | 105 | 1.6 | 3.2 | 0.00 | 0.00 | 0.00 | 31 | 992.2 |
| 20260503180014 | 15 | 47 | 1.6 | 3.2 | 0.00 | 0.00 | 0.00 | 31 | 992.0 |
| 20260503175512 | 15 | 91 | 0.0 | 4.8 | 0.00 | 0.00 | 0.00 | 29 | 992.1 |
| 20260503175008 | 15 | 184 | 1.6 | 6.4 | 0.00 | 0.00 | 0.00 | 30 | 992.2 |
| 20260503174506 | 14 | 102 | 1.6 | 9.7 | 0.00 | 0.00 | 0.00 | 33 | 992.4 |
| 20260503174002 | 14 | 78 | 1.6 | 3.2 | 0.00 | 0.00 | 0.00 | 33 | 992.4 |
| 20260503173457 | 14 | 195 | 3.2 | 9.7 | 0.00 | 0.00 | 0.00 | 31 | 992.4 |
| 20260503172954 | 14 | 221 | 0.0 | 0.0 | 0.00 | 0.00 | 0.00 | 33 | 992.3 |
| 20260503172451 | 14 | 232 | 6.4 | 9.7 | 0.00 | 0.00 | 0.00 | 32 | 992.5 |
| 20260503171948 | 14 | 104 | 4.8 | 6.4 | 0.00 | 0.00 | 0.00 | 31 | 992.5 |
| 20260503171445 | 14 | 210 | 6.4 | 9.7 | 0.00 | 0.00 | 0.00 | 31 | 992.6 |
| 20260503170943 | 13 | 212 | 1.6 | 3.2 | 0.00 | 0.00 | 0.00 | 33 | 992.7 |
| 20260503170438 | 14 | 94 | 4.8 | 4.8 | 0.00 | 0.00 | 0.00 | 32 | 992.9 |
| 20260503150831 | 11 | 110 | 1.6 | 4.8 | 0.00 | 0.00 | 0.00 | 39 | 994.0 |
| 20260503150327 | 11 | 269 | 3.2 | 9.7 | 0.00 | 0.00 | 0.00 | 39 | 994.2 |
| 20260503140251 | 10 | 221 | 4.8 | 6.4 | 0.00 | 0.00 | 0.00 | 44 | 993.7 |
| 20260503131221 | 8 | 236 | 1.6 | 3.2 | 0.00 | 0.00 | 0.00 | 44 | 993.9 |
| 20260503130718 | 9 | 192 | 4.8 | 9.7 | 0.00 | 0.00 | 0.00 | 44 | 994.0 |
| 20260503130215 | 9 | 186 | 0.0 | 4.8 | 0.00 | 0.00 | 0.00 | 47 | 993.8 |
| 20260503120141 | 7 | 65 | 0.0 | 0.0 | 0.00 | 0.00 | 0.00 | 56 | 993.8 |
| 20260503110609 | 5 | 245 | 0.0 | 0.0 | 0.00 | 0.00 | 0.00 | 66 | 993.5 |
| 20260503110106 | 5 | 245 | 0.0 | 0.0 | 0.00 | 0.00 | 0.00 | 66 | 993.3 |
| 20260503090455 | 5 | 199 | 0.0 | 0.0 | 0.00 | 0.00 | 0.00 | 64 | 992.0 |
| 20260503081422 | 5 | 182 | 0.0 | 3.2 | 0.00 | 0.00 | 0.00 | 61 | 991.9 |
| 20260503080919 | 5 | 216 | 0.0 | 1.6 | 0.00 | 0.00 | 0.00 | 62 | 991.6 |
| 20260503080415 | 5 | 175 | 1.6 | 3.2 | 0.00 | 0.00 | 0.00 | 63 | 991.6 |
| 20260503072852 | 5 | 206 | 0.0 | 1.6 | 0.00 | 0.00 | 0.00 | 63 | 991.4 |
| 20260503072349 | 5 | 205 | 0.0 | 0.0 | 0.00 | 0.00 | 0.00 | 63 | 991.5 |
| 20260503071845 | 5 | 200 | 0.0 | 0.0 | 0.00 | 0.00 | 0.00 | 64 | 991.3 |
| 20260503071343 | 5 | 200 | 0.0 | 0.0 | 0.00 | 0.00 | 0.00 | 64 | 991.3 |
| 20260503070839 | 5 | 199 | 0.0 | 1.6 | 0.00 | 0.00 | 0.00 | 63 | 991.4 |
| 20260503070337 | 5 | 205 | 0.0 | 0.0 | 0.00 | 0.00 | 0.00 | 63 | 991.3 |
| 20260503060308 | 6 | 195 | 0.0 | 1.6 | 0.00 | 0.00 | 0.00 | 59 | 990.9 |
| 20260503054755 | 6 | 185 | 1.6 | 1.6 | 0.00 | 0.00 | 0.00 | 57 | 990.9 |
| 20260503054252 | 6 | 202 | 3.2 | 4.8 | 0.00 | 0.00 | 0.00 | 57 | 991.0 |
| 20260503053750 | 7 | 174 | 1.6 | 4.8 | 0.00 | 0.00 | 0.00 | 56 | 991.1 |
| 20260503053248 | 7 | 198 | 4.8 | 6.4 | 0.00 | 0.00 | 0.00 | 56 | 991.0 |
| 20260503052744 | 7 | 205 | 4.8 | 6.4 | 0.00 | 0.00 | 0.00 | 55 | 990.9 |
| 20260503052241 | 7 | 210 | 4.8 | 6.4 | 0.00 | 0.00 | 0.00 | 56 | 990.8 |
| 20260503051736 | 7 | 207 | 6.4 | 6.4 | 0.00 | 0.00 | 0.00 | 56 | 990.9 |
| 20260503051234 | 7 | 251 | 4.8 | 4.8 | 0.00 | 0.00 | 0.00 | 57 | 991.1 |
| 20260503050730 | 7 | 179 | 1.6 | 1.6 | 0.00 | 0.00 | 0.00 | 58 | 990.8 |
| 20260503050227 | 7 | 192 | 1.6 | 9.7 | 0.00 | 0.00 | 0.00 | 58 | 990.8 |
| 20260503045724 | 6 | 207 | 0.0 | 1.6 | 0.00 | 0.00 | 0.00 | 60 | 991.0 |
| 20260503045222 | 6 | 218 | 3.2 | 4.8 | 0.00 | 0.00 | 0.00 | 61 | 990.9 |
| 20260503044718 | 6 | 266 | 1.6 | 1.6 | 0.00 | 0.00 | 0.00 | 61 | 990.9 |
| 20260503044216 | 6 | 252 | 0.0 | 0.0 | 0.00 | 0.00 | 0.00 | 60 | 990.9 |
| 20260503043712 | 6 | 252 | 0.0 | 0.0 | 0.00 | 0.00 | 0.00 | 60 | 991.1 |
| 20260503043210 | 6 | 227 | 0.0 | 0.0 | 0.00 | 0.00 | 0.00 | 59 | 990.9 |
| 20260503042705 | 6 | 227 | 0.0 | 1.6 | 0.00 | 0.00 | 0.00 | 59 | 991.0 |
| 20260503042202 | 7 | 215 | 0.0 | 0.0 | 0.00 | 0.00 | 0.00 | 58 | 990.8 |
| 20260503041658 | 7 | 260 | 1.6 | 1.6 | 0.00 | 0.00 | 0.00 | 57 | 990.8 |
| 20260503041156 | 7 | 181 | 1.6 | 1.6 | 0.00 | 0.00 | 0.00 | 57 | 991.0 |
| 20260503040653 | 7 | 191 | 0.0 | 0.0 | 0.00 | 0.00 | 0.00 | 56 | 990.6 |
| 20260503040151 | 7 | 152 | 1.6 | 1.6 | 0.00 | 0.00 | 0.00 | 56 | 990.8 |
| 20260503035647 | 7 | 167 | 3.2 | 3.2 | 0.00 | 0.00 | 0.00 | 57 | 990.8 |
| 20260503035145 | 7 | 187 | 1.6 | 3.2 | 0.00 | 0.00 | 0.00 | 57 | 990.7 |
| 20260503034642 | 7 | 191 | 3.2 | 3.2 | 0.00 | 0.00 | 0.00 | 56 | 991.0 |
| 20260503034139 | 8 | 208 | 4.8 | 4.8 | 0.00 | 0.00 | 0.00 | 55 | 990.6 |
| 20260503033636 | 8 | 180 | 1.6 | 3.2 | 0.00 | 0.00 | 0.00 | 55 | 990.7 |
| 20260503033134 | 8 | 215 | 3.2 | 4.8 | 0.00 | 0.00 | 0.00 | 54 | 990.7 |
| 20260503032632 | 8 | 177 | 1.6 | 3.2 | 0.00 | 0.00 | 0.00 | 54 | 990.6 |
| 20260503032131 | 8 | 166 | 1.6 | 3.2 | 0.00 | 0.00 | 0.00 | 54 | 990.4 |
| 20260503031627 | 8 | 200 | 1.6 | 1.6 | 0.00 | 0.00 | 0.00 | 53 | 990.4 |
| 20260503031125 | 8 | 194 | 4.8 | 4.8 | 0.00 | 0.00 | 0.00 | 52 | 990.5 |
| 20260503030621 | 8 | 180 | 3.2 | 3.2 | 0.00 | 0.00 | 0.00 | 52 | 990.6 |
| 20260503030118 | 8 | 216 | 4.8 | 4.8 | 0.00 | 0.00 | 0.00 | 52 | 990.7 |
| 20260503025614 | 8 | 196 | 1.6 | 12.9 | 0.00 | 0.00 | 0.00 | 51 | 990.7 |
| 20260503025113 | 9 | 183 | 4.8 | 6.4 | 0.00 | 0.00 | 0.00 | 50 | 990.4 |
| 20260503024609 | 9 | 197 | 1.6 | 1.6 | 0.00 | 0.00 | 0.00 | 50 | 990.4 |
| 20260503024106 | 9 | 172 | 4.8 | 6.4 | 0.00 | 0.00 | 0.00 | 49 | 990.4 |
| 20260503023603 | 9 | 178 | 4.8 | 6.4 | 0.00 | 0.00 | 0.00 | 49 | 990.7 |
| 20260503023100 | 9 | 191 | 1.6 | 3.2 | 0.00 | 0.00 | 0.00 | 49 | 990.3 |
| 20260503022555 | 10 | 203 | 1.6 | 4.8 | 0.00 | 0.00 | 0.00 | 48 | 990.5 |
| 20260503022050 | 10 | 181 | 3.2 | 9.7 | 0.00 | 0.00 | 0.00 | 47 | 990.5 |
| 20260503021548 | 10 | 196 | 1.6 | 1.6 | 0.00 | 0.00 | 0.00 | 49 | 990.4 |
| 20260503021044 | 10 | 160 | 0.0 | 6.4 | 0.00 | 0.00 | 0.00 | 47 | 990.1 |
| 20260503020542 | 10 | 189 | 0.0 | 0.0 | 0.00 | 0.00 | 0.00 | 49 | 990.3 |
| 20260503020038 | 10 | 202 | 0.0 | 0.0 | 0.00 | 0.00 | 0.00 | 48 | 990.2 |
| 20260503015535 | 10 | 329 | 1.6 | 3.2 | 0.00 | 0.00 | 0.00 | 47 | 990.2 |
| 20260503015032 | 10 | 240 | 1.6 | 1.6 | 0.00 | 0.00 | 0.00 | 46 | 990.1 |
| 20260503014528 | 10 | 172 | 1.6 | 3.2 | 0.00 | 0.00 | 0.00 | 45 | 990.2 |
| 20260503014026 | 10 | 186 | 1.6 | 3.2 | 0.00 | 0.00 | 0.00 | 45 | 990.0 |
| 20260503013523 | 10 | 216 | 1.6 | 3.2 | 0.00 | 0.00 | 0.00 | 44 | 990.2 |
| 20260503013021 | 10 | 216 | 1.6 | 3.2 | 0.00 | 0.00 | 0.00 | 44 | 990.1 |
| 20260503012518 | 10 | 197 | 4.8 | 6.4 | 0.00 | 0.00 | 0.00 | 44 | 990.2 |
| 20260503012014 | 11 | 225 | 1.6 | 6.4 | 0.00 | 0.00 | 0.00 | 44 | 990.0 |
| 20260503011511 | 11 | 191 | 0.0 | 3.2 | 0.00 | 0.00 | 0.00 | 43 | 989.9 |
| 20260503011008 | 11 | 220 | 3.2 | 4.8 | 0.00 | 0.00 | 0.00 | 42 | 989.9 |
| 20260503010504 | 11 | 186 | 3.2 | 3.2 | 0.00 | 0.00 | 0.00 | 42 | 989.8 |
| 20260503010002 | 11 | 174 | 3.2 | 4.8 | 0.00 | 0.00 | 0.00 | 42 | 989.6 |
| 20260503005459 | 11 | 205 | 3.2 | 4.8 | 0.00 | 0.00 | 0.00 | 41 | 989.4 |
| 20260503004956 | 11 | 187 | 1.6 | 3.2 | 0.00 | 0.00 | 0.00 | 41 | 989.4 |
| 20260503004452 | 11 | 207 | 3.2 | 4.8 | 0.00 | 0.00 | 0.00 | 40 | 989.3 |
| 20260503003951 | 11 | 164 | 3.2 | 9.7 | 0.00 | 0.00 | 0.00 | 40 | 989.2 |
| 20260503003447 | 11 | 105 | 0.0 | 1.6 | 0.00 | 0.00 | 0.00 | 40 | 989.0 |
| 20260503002944 | 11 | 163 | 0.0 | 0.0 | 0.00 | 0.00 | 0.00 | 40 | 989.2 |
| 20260503002441 | 11 | 169 | 3.2 | 4.8 | 0.00 | 0.00 | 0.00 | 38 | 989.1 |
| 20260503001937 | 11 | 213 | 0.0 | 3.2 | 0.00 | 0.00 | 0.00 | 38 | 988.9 |
| 20260503001434 | 11 | 235 | 4.8 | 6.4 | 0.00 | 0.00 | 0.00 | 37 | 988.9 |
| 20260503000932 | 11 | 217 | 6.4 | 12.9 | 0.00 | 0.00 | 0.00 | 37 | 988.8 |
| 20260503000430 | 11 | 190 | 1.6 | 3.2 | 0.00 | 0.00 | 0.00 | 38 | 988.6 |
| 20260502235926 | 11 | 147 | 1.6 | 1.6 | 0.00 | 0.00 | 0.00 | 37 | 988.6 |
| 20260502235422 | 12 | 142 | 3.2 | 3.2 | 0.00 | 0.00 | 0.00 | 37 | 988.6 |
| 20260502234920 | 12 | 171 | 1.6 | 3.2 | 0.00 | 0.00 | 0.00 | 37 | 988.5 |
| 20260502234416 | 12 | 135 | 3.2 | 4.8 | 0.00 | 0.00 | 0.00 | 36 | 988.5 |
| 20260502233914 | 12 | 218 | 8.0 | 14.5 | 0.00 | 0.00 | 0.00 | 35 | 988.4 |
| 20260502233409 | 12 | 213 | 1.6 | 1.6 | 0.00 | 0.00 | 0.00 | 37 | 988.4 |
| 20260502232907 | 12 | 205 | 0.0 | 0.0 | 0.00 | 0.00 | 0.00 | 38 | 988.3 |
| 20260502232402 | 12 | 174 | 0.0 | 3.2 | 0.00 | 0.00 | 0.00 | 38 | 988.3 |
| 20260502231859 | 12 | 176 | 3.2 | 6.4 | 0.00 | 0.00 | 0.00 | 37 | 988.1 |
| 20260502231357 | 12 | 184 | 0.0 | 6.4 | 0.00 | 0.00 | 0.00 | 37 | 988.3 |
| 20260502230855 | 12 | 117 | 0.0 | 3.2 | 0.00 | 0.00 | 0.00 | 37 | 988.0 |
| 20260502230353 | 12 | 205 | 1.6 | 1.6 | 0.00 | 0.00 | 0.00 | 37 | 988.1 |
| 20260502225849 | 12 | 210 | 3.2 | 4.8 | 0.00 | 0.00 | 0.00 | 35 | 988.0 |
| 20260502225346 | 12 | 167 | 3.2 | 3.2 | 0.00 | 0.00 | 0.00 | 35 | 988.0 |
| 20260502224843 | 13 | 168 | 1.6 | 3.2 | 0.00 | 0.00 | 0.00 | 36 | 988.1 |
| 20260502224339 | 13 | 116 | 0.0 | 1.6 | 0.00 | 0.00 | 0.00 | 36 | 988.0 |
| 20260502223837 | 13 | 110 | 1.6 | 3.2 | 0.00 | 0.00 | 0.00 | 35 | 988.3 |
| 20260502223335 | 13 | 103 | 1.6 | 4.8 | 0.00 | 0.00 | 0.00 | 34 | 988.1 |
| 20260502222832 | 13 | 115 | 1.6 | 3.2 | 0.00 | 0.00 | 0.00 | 35 | 988.1 |
| 20260502222330 | 13 | 230 | 1.6 | 4.8 | 0.00 | 0.00 | 0.00 | 38 | 988.0 |
| 20260502221825 | 13 | 195 | 3.2 | 9.7 | 0.00 | 0.00 | 0.00 | 35 | 988.0 |
| 20260502221322 | 13 | 134 | 0.0 | 1.6 | 0.00 | 0.00 | 0.00 | 36 | 988.0 |
| 20260502220819 | 13 | 161 | 6.4 | 11.3 | 0.00 | 0.00 | 0.00 | 35 | 988.0 |
| 20260502220314 | 13 | 185 | 4.8 | 6.4 | 0.00 | 0.00 | 0.00 | 35 | 987.7 |
| 20260502215811 | 13 | 93 | 1.6 | 3.2 | 0.00 | 0.00 | 0.00 | 36 | 987.8 |
| 20260502215309 | 13 | 169 | 1.6 | 11.3 | 0.00 | 0.00 | 0.00 | 34 | 988.2 |